SCP
-0 -0 -0 -0 0 0 0 0 0 0 0 0 0 0 0 0 0 0 0 0 0 0 0 0 0 0 0 0 0 0 0 0 0 0 0 0 0 0 0 0 0 0 0 0 0 0 0
-0 0 0 0 0 0 0 0 0 0 0 0 0 0 0 0 0 0 0 0 0 0 0 0 0 0 0 0 0 0 0 0 0 0 0 0 0 0 0 0 0 0 0 0 0 0 0
0 0 0 0 0 0 0 0 0 0 0 0 0 0 0 0 0 0 0 0 0 0 0 0 0 0 0 0 0 0 0 0 0 0 0 0 0 0 0 0 0 0 0 0 0 0 0
0 0 0 0 0 0 0 0 0 0 0 0 0 0 0 0 0 0 0 0 0 0 0 0 0 0 0 0 0 0 0 0 0 0 0 0 0 0 0 0 0 0 0 0 0 0 0
-0 -0 0 0 0 0 0 0 0 0 0 0 0 0 0 0 0 0 0 0 0 0 0 -0 0 0 0 0 0 0 0 0 0 0 0 0 0 0 0 0 0 0 0 0 0 0 0
-0 -0 -0 0 0 0 0 0 0 0 0 0 0 0 0 0 0 0 0 0 0 -0 0 -0 0 0 0 0 0 0 0 0 0 0 0 0 0 0 0 0 0 0 0 0 0 0 0
0 0 0 0 0 0 0 0 0 0 0 0 0 0 0 0 0 0 0 0 0 0 0 0 0 0 0 0 0 0 0 0 0 0 0 0 0 0 0 0 0 0 0 0 0 0 0
0 0 0 0 0 0 0 0 0 0 0 0 0 0 0 0 0 0 0 0 0 0 0 0 0 0 0 0 0 0 0 0 0 0 0 0 0 0 0 0 0 0 0 0 0 0 0
0 0 0 0 0 0 0 0 0 0 0 0 0 0 0 0 0 0 0 0 0 0 -0 0 0 0 0 0 0 0 0 0 0 0 0 0 0 0 0 0 0 0 0 0 0 0 0
0 -0 0 0 0 0 0 0 0 0 0 0 0 0 0 0 0 0 0 0 0 0 -0 -0 0 0 0 0 0 0 0 0 0 0 0 0 0 0 0 0 0 0 0 0 0 0 0
-0 -0 -0 0 0 0 0 0 0 0 0 0 0 0 0 0 0 0 0 0 0 0 0 0 0 0 0 0 0 0 0 0 0 0 0 0 0 0 0 0 0 0 0 0 0 0 0
-0 -0 -0 0 0 0 0 0 0 0 0 0 0 0 0 0 0 0 0 0 0 0 0 0 0 0 0 -0 0 0 0 0 0 0 0 0 0 0 0 0 0 0 0 0 0 0 0
-0 0 0 0 0 0 0 0 -0 0 0 0 0 0 0 0 0 0 0 0 0 0 0 0 0 0 0 0 0 0 0 0 0 0 0 0 0 0 0 0 0 0 0 0 0 0 0
0 0 0 0 0 0 0 -0 0 0 0 0 0 0 0 0 0 0 0 0 0 0 0 0 0 0 0 -0 -0 0 0 0 0 0 0 0 0 0 0 0 0 0 0 0 0 0 -0
0 0 0 0 0 0 0 0 0 0 0 -0 0 0 0 0 0 0 0 0 0 0 0 0 0 0 0 0 -0 -0 0 0 0 0 0 0 0 0 0 0 0 0 0 0 0 0 0
0 0 0 0 0 0 0 0 0 0 0 0 0 0 0 0 0 0 0 -0 0 0 0 0 0 0 0 0 -0 -0 0 0 0 0 0 0 0 0 0 0 0 0 0 0 0 0 0
0 0 0 0 0 0 0 0 0 0 0 0 0 0 0 0 0 0 0 0 0 0 0 0 0 0 0 0 0 -0 -0 -0 0 0 0 0 0 0 0 0 0 0 0 0 0 0 0
0 0 0 0 0 0 0 0 0 0 0 0 0 0 0 -0 -0 0 0 0 0 0 0 0 -0 0 0 0 0 0 -0 -0 -0 0 0 0 0 0 0 0 0 0 0 0 0 0 0
0 0 0 0 0 0 0 0 0 0 0 0 0 0 0 -0 0 -0 -0 0 0 0 -0 -0 -0 0 0 0 0 0 -0 -0 -0 0 0 0 0 0 0 0 0 0 0 0 0 0 0
0 0 0 0 0 0 0 0 0 0 0 0 0 0 0 0 0 0 -0 -0 0 0 0 -0 -0 -0 -0 0 -0 0 0 -0 -0 -0 -0 0 0 0 0 0 0 0 0 0 0 0 0
0 -0 0 0 0 0 0 0 0 0 0 0 0 0 0 0 0 0 0 0 -0 -0 0 0 -0 -0 -0 0 0 -0 -0 0 -0 -0 -0 0 0 0 0 0 0 0 0 0 0 0 0
0 -0 0 0 0 0 0 0 0 0 0 0 0 0 0 0 0 0 0 0 0 0 0 -0 -0 0 0 -0 0 0 0 0 0 -0 -0 0 0 0 0 0 0 0 0 0 0 0 0
0 0 0 0 0 0 0 0 0 0 0 0 0 0 0 0 0 0 0 0 0 -0 0 0 0 -0 0 0 0 0 0 0 0 0 -0 0 0 0 0 0 0 0 0 0 0 0 0
0 0 0 0 0 0 0 0 0 0 0 0 0 0 0 0 0 0 0 0 0 0 0 -0 -0 -0 0 -0 -0 -0 0 0 -0 -0 -0 0 0 0 0 0 0 0 0 0 0 0 0
0 0 0 0 0 0 0 0 0 0 0 0 0 0 0 0 0 0 0 0 0 -0 -0 0 0 0 -0 -0 0 0 -0 -0 -0 -0 -0 -0 0 0 0 0 0 0 0 0 0 0 0
0 0 0 0 -0 0 0 0 0 0 0 0 0 0 0 0 0 0 0 0 0 0 0 0 0 0 0 -0 -0 0 -0 0 -0 0 -0 -0 0 0 0 0 0 0 0 0 0 0 0
0 0 0 0 -0 -0 0 0 0 0 0 0 0 0 0 0 0 0 0 0 0 0 0 0 0 0 0 -0 0 -0 -0 0 0 0 -0 -0 0 0 0 0 0 0 0 0 0 0 0
0 0 0 0 0 -0 -0 0 0 0 0 0 0 0 0 0 0 0 0 0 0 0 0 0 0 0 0 0 0 0 0 0 0 0 0 0 0 0 0 0 0 0 0 0 0 0 0
0 0 0 0 0 0 -0 0 0 0 0 0 0 0 0 0 0 0 0 0 0 -0 0 0 0 -0 -0 0 0 0 0 -0 -0 0 0 0 0 0 0 0 0 0 0 0 0 0 0
Wind_Speed_500mb
29 30 30 31 32 33 33 33 35 37 36 36 37 37 37 38 38 38 38 39 39 38 39 39 41 41 40 25 38 24 22 19 2 26 54 57 60 53 35 34 44 30 41 51 51 54 48
31 31 34 34 36 35 32 32 32 34 36 38 39 40 41 41 41 41 40 39 40 43 41 40 39 32 30 25 47 62 66 37 32 17 19 43 29 44 34 31 43 31 51 57 55 49 60
35 37 36 37 38 38 37 37 38 40 41 41 40 41 44 46 47 47 46 45 46 44 41 44 41 34 39 70 39 34 40 68 66 50 40 33 54 24 16 11 31 27 29 30 31 44 36
39 40 41 43 41 42 40 37 37 37 38 41 41 43 45 45 46 49 50 50 51 49 44 40 37 28 28 36 45 55 60 56 49 57 50 41 35 39 13 1 6 18 12 28 24 35 26
33 36 35 36 38 42 41 40 41 41 41 42 42 44 47 49 49 47 48 51 53 40 33 28 18 17 30 24 43 36 47 64 59 61 42 26 30 30 16 21 15 16 23 32 24 23 23
38 37 39 40 41 42 42 44 46 46 47 45 44 45 45 44 46 50 50 51 30 20 16 6 7 8 19 13 12 32 29 19 41 26 33 34 24 21 29 30 41 35 23 20 27 20 19
39 40 43 44 45 46 48 48 49 49 47 45 44 45 46 46 47 49 50 32 9 5 8 15 19 27 57 53 53 35 14 19 29 43 33 48 25 50 59 58 27 37 40 45 33 14 17
40 41 44 44 45 48 50 53 52 50 45 43 44 43 45 46 46 47 23 10 8 10 25 44 59 63 73 54 28 45 31 21 27 36 43 20 56 61 47 42 48 47 45 47 29 24 13
41 41 42 42 44 50 51 53 55 52 49 48 46 44 46 47 49 16 31 8 4 19 12 36 37 30 32 20 37 63 33 21 21 41 58 55 74 44 47 42 50 58 57 48 39 9 17
44 43 43 46 47 49 50 51 53 53 52 52 48 46 46 47 26 33 16 9 11 21 8 12 7 9 6 13 15 45 51 33 26 45 45 43 53 49 45 57 47 52 47 47 35 16 24
46 48 46 48 50 50 50 50 52 53 54 54 52 48 43 37 38 18 11 10 17 4 10 5 5 1 13 11 36 9 33 56 41 24 30 36 37 57 51 59 52 43 30 35 30 23 23
49 49 50 52 54 54 54 50 53 54 56 58 58 50 46 39 29 19 8 9 3 6 13 6 6 16 12 4 32 22 5 52 39 30 40 33 23 43 61 36 46 23 24 23 14 18 26
48 51 53 55 57 58 56 54 55 57 58 59 60 56 39 24 17 11 9 1 5 9 11 6 12 22 23 20 21 35 16 27 27 33 36 32 33 6 27 43 40 45 28 15 19 18 21
47 50 53 56 60 62 61 56 57 61 61 62 62 44 14 21 24 9 8 5 10 3 12 19 24 27 15 18 14 44 30 17 41 33 18 27 20 42 34 33 39 53 45 20 27 26 17
47 50 54 58 62 64 63 59 59 62 63 66 62 11 29 24 11 12 6 6 4 5 10 21 26 17 7 14 11 13 24 21 18 43 15 21 32 22 39 26 48 46 44 35 21 2 8
49 52 54 57 60 63 63 62 60 62 63 67 48 7 32 20 12 9 3 8 6 10 19 12 12 8 10 19 14 6 10 9 22 28 26 13 13 24 37 41 47 40 45 24 22 27 18
51 55 57 57 58 60 61 63 58 60 64 65 28 5 25 12 7 2 2 6 11 21 18 7 10 11 9 18 16 10 8 10 8 25 28 20 12 20 36 40 46 21 45 16 19 13 14
53 56 57 57 56 56 58 60 58 57 63 62 22 3 24 18 4 4 5 11 14 16 9 12 14 19 15 10 13 10 13 12 7 13 15 13 11 14 47 27 39 44 35 45 22 18 19
54 56 57 57 57 55 55 57 57 50 56 54 17 9 15 20 8 7 14 13 11 12 17 11 10 8 10 8 9 13 10 7 12 8 7 14 11 23 14 17 29 55 45 43 18 9 31
55 57 57 58 58 54 52 54 55 46 46 42 14 8 9 10 7 14 17 12 13 22 10 15 14 13 12 12 13 13 17 9 12 11 13 15 8 20 20 13 2 41 47 42 40 26 18
55 57 57 57 58 54 51 54 48 43 37 26 16 4 6 7 9 18 19 11 19 19 12 17 3 6 13 9 21 15 11 18 14 9 7 4 8 14 29 28 19 10 43 52 49 40 33
56 56 58 58 56 51 52 57 45 36 35 15 11 8 6 15 15 17 8 5 19 14 13 16 12 27 22 13 21 34 27 15 5 4 3 6 5 19 20 22 18 20 16 42 49 44 35
57 58 60 58 52 49 57 58 46 27 26 12 15 14 11 13 12 10 5 8 18 32 19 19 28 29 25 22 17 23 33 33 28 6 5 3 0 10 21 5 11 21 30 23 27 36 46
60 61 62 55 48 57 61 58 42 25 18 19 18 17 7 8 9 16 21 32 27 27 19 38 36 11 8 44 49 42 47 48 40 27 28 7 4 3 7 3 19 5 20 24 26 19 42
64 63 61 51 52 63 64 57 40 26 16 21 23 13 7 9 18 26 19 24 36 32 28 23 20 29 46 26 8 10 5 9 20 24 31 27 6 3 6 12 6 11 19 11 9 10 25
64 64 62 50 54 66 66 57 40 24 16 21 23 20 17 12 7 15 30 29 17 15 11 11 32 30 15 3 4 5 5 7 2 7 26 27 14 7 4 8 25 18 27 12 4 15 28
63 63 62 51 53 66 68 60 44 23 15 23 25 22 17 14 22 16 13 13 13 8 9 16 21 11 8 4 5 5 6 9 5 13 15 12 7 19 12 6 4 26 30 4 19 6 36
64 64 63 57 49 64 69 64 43 26 16 25 24 22 25 16 41 31 22 23 24 17 5 15 18 2 6 6 4 5 5 4 7 3 8 9 11 10 8 8 7 44 12 5 13 23 31
66 67 66 62 51 60 67 65 44 28 18 21 29 20 22 27 49 62 59 31 34 29 25 9 8 16 8 5 3 6 6 3 7 4 3 4 3 3 7 3 15 27 9 10 20 29 36
Wind_Direction_500mb
6 1 356 352 350 349 348 346 347 345 342 339 336 334 332 332 327 323 321 319 318 314 313 313 310 300 286 256 231 247 239 191 48 211 215 200 197 202 214 210 224 215 228 241 250 267 266
359 359 356 351 347 343 343 339 340 337 335 333 330 329 329 328 327 323 319 315 313 311 318 315 310 302 277 249 260 246 238 231 256 251 194 201 206 222 241 224 214 219 230 243 252 262 270
2 358 358 355 351 348 346 344 338 334 332 330 329 329 327 326 326 323 321 319 311 313 303 299 296 291 262 249 252 260 242 239 241 248 243 233 224 224 234 214 234 242 238 241 240 247 255
4 4 3 355 354 348 349 347 340 339 336 333 333 330 326 325 323 320 321 316 318 312 302 294 287 273 258 295 269 256 247 239 240 236 241 240 230 242 234 233 141 208 206 229 229 232 246
11 5 357 354 351 356 358 353 350 346 342 340 339 335 332 328 324 321 318 316 321 314 309 300 268 243 274 276 262 272 251 241 239 242 230 218 213 225 221 229 225 214 231 218 236 229 245
15 10 10 8 5 3 0 356 352 348 345 343 339 336 334 330 326 323 323 327 330 326 329 353 152 234 261 297 249 314 281 258 227 212 200 207 191 209 217 202 219 219 228 236 233 228 224
15 10 8 8 7 4 1 356 351 347 341 338 336 333 333 332 331 328 330 341 338 312 296 251 256 253 281 288 284 277 319 267 196 194 197 191 197 219 212 215 235 253 234 238 234 228 245
14 10 10 10 9 3 359 355 351 347 342 338 334 333 332 330 331 328 358 43 42 326 297 281 277 256 268 272 291 265 254 202 190 200 193 176 221 220 223 220 223 229 234 238 248 259 247
14 13 11 6 3 359 355 351 350 351 348 340 331 326 326 325 328 329 334 284 225 314 260 283 253 254 253 251 236 265 197 215 209 208 192 198 224 212 207 213 215 224 229 237 244 256 245
15 13 10 5 359 355 353 351 351 350 347 345 339 328 322 321 320 317 337 212 311 315 286 269 221 247 263 211 241 262 217 209 215 212 204 224 225 200 206 217 209 230 227 240 240 234 255
17 18 14 7 1 355 352 351 350 350 347 345 341 335 329 320 303 308 312 271 279 258 296 64 131 348 329 211 321 263 235 209 229 192 189 210 200 213 207 209 204 233 222 216 228 247 274
20 17 13 9 4 359 355 351 350 348 346 343 342 337 324 317 306 316 275 307 149 197 247 313 87 338 335 342 347 308 253 221 227 244 222 222 208 203 221 203 204 207 197 164 185 235 245
14 12 9 6 2 360 355 352 349 348 344 340 339 334 322 331 314 312 270 11 171 231 326 19 338 328 329 5 352 352 324 198 213 202 218 215 222 210 202 201 192 195 197 185 211 209 241
11 8 6 3 0 360 356 353 351 348 348 341 341 341 12 345 328 271 250 176 227 299 280 349 339 325 312 20 28 328 353 337 216 242 218 204 193 210 193 199 190 191 190 215 217 225 234
8 6 4 1 358 358 358 356 352 351 349 344 345 15 7 351 2 152 206 212 278 328 359 339 324 303 335 2 341 357 357 340 24 227 276 220 227 179 183 181 183 201 212 214 238 120 220
3 0 360 358 357 356 356 353 353 354 351 348 351 72 25 17 92 160 257 279 285 323 331 316 297 342 336 345 316 18 345 342 334 351 339 284 244 207 189 192 191 185 178 189 213 212 218
357 354 353 354 354 354 352 349 353 354 353 352 1 52 6 339 215 242 206 278 286 287 306 277 279 293 304 316 332 315 216 315 3 347 330 267 277 174 175 200 185 181 189 195 199 223 209
354 352 350 351 352 354 350 347 353 356 354 356 7 16 2 40 33 343 300 305 303 291 314 281 261 267 259 299 300 292 286 166 98 41 331 303 294 244 206 198 197 198 195 194 197 183 218
354 352 351 352 351 353 351 347 353 357 357 352 349 315 3 14 7 350 326 303 273 305 337 313 303 301 283 294 307 300 316 87 129 82 22 342 237 223 172 195 206 202 204 204 212 181 204
351 349 350 350 349 351 353 350 350 357 359 354 357 349 351 16 23 336 335 310 320 325 313 337 290 303 308 301 244 265 283 310 197 270 156 330 275 259 208 203 353 207 208 205 207 216 191
349 346 347 348 347 348 353 351 347 351 360 3 8 11 356 318 335 331 321 299 315 349 342 316 329 355 339 296 308 249 252 316 294 156 126 57 280 291 273 276 286 287 219 211 214 216 221
351 347 347 347 345 347 352 349 350 348 355 8 2 342 318 291 296 326 326 292 331 331 312 308 293 321 324 289 282 292 304 309 272 8 138 138 318 324 262 233 252 272 257 225 218 215 218
352 348 348 348 346 349 351 350 346 349 350 350 342 325 298 283 316 322 290 323 308 318 296 276 309 310 298 304 306 283 279 273 263 272 276 237 324 324 218 117 308 264 239 220 225 218 221
351 349 349 351 349 348 349 349 343 340 313 306 312 307 286 287 301 298 287 300 296 305 288 296 300 269 281 314 302 274 254 252 251 237 224 222 206 262 284 208 232 221 28 211 199 207 229
352 349 349 351 348 347 347 347 347 334 300 291 294 282 255 283 291 291 285 315 303 298 287 276 300 289 299 301 283 294 198 215 231 216 208 224 216 242 263 217 315 120 24 6 206 145 15
352 351 348 347 348 348 347 346 346 334 308 291 295 288 265 291 246 298 302 290 298 318 294 260 315 314 330 287 293 300 296 308 191 143 194 193 233 260 268 230 212 36 342 328 243 169 7
352 351 349 342 344 348 347 344 343 325 310 291 295 290 272 262 276 274 284 298 292 273 275 296 334 326 320 323 262 261 284 299 272 161 171 180 185 222 219 268 277 352 328 206 187 32 341
349 350 349 343 337 346 346 344 340 330 309 299 293 290 268 267 279 277 276 268 271 258 252 318 322 47 299 320 285 327 261 337 290 35 155 166 165 192 201 222 224 360 11 60 358 329 335
346 347 347 347 336 342 344 344 337 332 305 283 285 294 285 265 268 290 297 299 279 268 265 239 264 310 286 319 312 305 308 286 295 208 328 153 275 169 229 52 347 346 310 356 340 335 338
Wind_Speed_850mb
29 30 30 31 32 33 33 33 35 37 36 36 37 37 37 38 38 38 38 39 39 38 39 39 41 41 40 25 38 24 22 19 2 26 54 57 60 53 35 34 44 30 41 51 51 54 48
31 31 34 34 36 35 32 32 32 34 36 38 39 40 41 41 41 41 40 39 40 43 41 40 39 32 30 25 47 62 66 37 32 17 19 43 29 44 34 31 43 31 51 57 55 49 60
35 37 36 37 38 38 37 37 38 40 41 41 40 41 44 46 47 47 46 45 46 44 41 44 41 34 39 70 39 34 40 68 66 50 40 33 54 24 16 11 31 27 29 30 31 44 36
39 40 41 43 41 42 40 37 37 37 38 41 41 43 45 45 46 49 50 50 51 49 44 40 37 28 28 36 45 55 60 56 49 57 50 41 35 39 13 1 6 18 12 28 24 35 26
33 36 35 36 38 42 41 40 41 41 41 42 42 44 47 49 49 47 48 51 53 40 33 28 18 17 30 24 43 36 47 64 59 61 42 26 30 30 16 21 15 16 23 32 24 23 23
38 37 39 40 41 42 42 44 46 46 47 45 44 45 45 44 46 50 50 51 30 20 16 6 7 8 19 13 12 32 29 19 41 26 33 34 24 21 29 30 41 35 23 20 27 20 19
39 40 43 44 45 46 48 48 49 49 47 45 44 45 46 46 47 49 50 32 9 5 8 15 19 27 57 53 53 35 14 19 29 43 33 48 25 50 59 58 27 37 40 45 33 14 17
40 41 44 44 45 48 50 53 52 50 45 43 44 43 45 46 46 47 23 10 8 10 25 44 59 63 73 54 28 45 31 21 27 36 43 20 56 61 47 42 48 47 45 47 29 24 13
41 41 42 42 44 50 51 53 55 52 49 48 46 44 46 47 49 16 31 8 4 19 12 36 37 30 32 20 37 63 33 21 21 41 58 55 74 44 47 42 50 58 57 48 39 9 17
44 43 43 46 47 49 50 51 53 53 52 52 48 46 46 47 26 33 16 9 11 21 8 12 7 9 6 13 15 45 51 33 26 45 45 43 53 49 45 57 47 52 47 47 35 16 24
46 48 46 48 50 50 50 50 52 53 54 54 52 48 43 37 38 18 11 10 17 4 10 5 5 1 13 11 36 9 33 56 41 24 30 36 37 57 51 59 52 43 30 35 30 23 23
49 49 50 52 54 54 54 50 53 54 56 58 58 50 46 39 29 19 8 9 3 6 13 6 6 16 12 4 32 22 5 52 39 30 40 33 23 43 61 36 46 23 24 23 14 18 26
48 51 53 55 57 58 56 54 55 57 58 59 60 56 39 24 17 11 9 1 5 9 11 6 12 22 23 20 21 35 16 27 27 33 36 32 33 6 27 43 40 45 28 15 19 18 21
47 50 53 56 60 62 61 56 57 61 61 62 62 44 14 21 24 9 8 5 10 3 12 19 24 27 15 18 14 44 30 17 41 33 18 27 20 42 34 33 39 53 45 20 27 26 17
47 50 54 58 62 64 63 59 59 62 63 66 62 11 29 24 11 12 6 6 4 5 10 21 26 17 7 14 11 13 24 21 18 43 15 21 32 22 39 26 48 46 44 35 21 2 8
49 52 54 57 60 63 63 62 60 62 63 67 48 7 32 20 12 9 3 8 6 10 19 12 12 8 10 19 14 6 10 9 22 28 26 13 13 24 37 41 47 40 45 24 22 27 18
51 55 57 57 58 60 61 63 58 60 64 65 28 5 25 12 7 2 2 6 11 21 18 7 10 11 9 18 16 10 8 10 8 25 28 20 12 20 36 40 46 21 45 16 19 13 14
53 56 57 57 56 56 58 60 58 57 63 62 22 3 24 18 4 4 5 11 14 16 9 12 14 19 15 10 13 10 13 12 7 13 15 13 11 14 47 27 39 44 35 45 22 18 19
54 56 57 57 57 55 55 57 57 50 56 54 17 9 15 20 8 7 14 13 11 12 17 11 10 8 10 8 9 13 10 7 12 8 7 14 11 23 14 17 29 55 45 43 18 9 31
55 57 57 58 58 54 52 54 55 46 46 42 14 8 9 10 7 14 17 12 13 22 10 15 14 13 12 12 13 13 17 9 12 11 13 15 8 20 20 13 2 41 47 42 40 26 18
55 57 57 57 58 54 51 54 48 43 37 26 16 4 6 7 9 18 19 11 19 19 12 17 3 6 13 9 21 15 11 18 14 9 7 4 8 14 29 28 19 10 43 52 49 40 33
56 56 58 58 56 51 52 57 45 36 35 15 11 8 6 15 15 17 8 5 19 14 13 16 12 27 22 13 21 34 27 15 5 4 3 6 5 19 20 22 18 20 16 42 49 44 35
57 58 60 58 52 49 57 58 46 27 26 12 15 14 11 13 12 10 5 8 18 32 19 19 28 29 25 22 17 23 33 33 28 6 5 3 0 10 21 5 11 21 30 23 27 36 46
60 61 62 55 48 57 61 58 42 25 18 19 18 17 7 8 9 16 21 32 27 27 19 38 36 11 8 44 49 42 47 48 40 27 28 7 4 3 7 3 19 5 20 24 26 19 42
64 63 61 51 52 63 64 57 40 26 16 21 23 13 7 9 18 26 19 24 36 32 28 23 20 29 46 26 8 10 5 9 20 24 31 27 6 3 6 12 6 11 19 11 9 10 25
64 64 62 50 54 66 66 57 40 24 16 21 23 20 17 12 7 15 30 29 17 15 11 11 32 30 15 3 4 5 5 7 2 7 26 27 14 7 4 8 25 18 27 12 4 15 28
63 63 62 51 53 66 68 60 44 23 15 23 25 22 17 14 22 16 13 13 13 8 9 16 21 11 8 4 5 5 6 9 5 13 15 12 7 19 12 6 4 26 30 4 19 6 36
64 64 63 57 49 64 69 64 43 26 16 25 24 22 25 16 41 31 22 23 24 17 5 15 18 2 6 6 4 5 5 4 7 3 8 9 11 10 8 8 7 44 12 5 13 23 31
66 67 66 62 51 60 67 65 44 28 18 21 29 20 22 27 49 62 59 31 34 29 25 9 8 16 8 5 3 6 6 3 7 4 3 4 3 3 7 3 15 27 9 10 20 29 36
Wind_Direction_850mb
6 1 356 352 350 349 348 346 347 345 342 339 336 334 332 332 327 323 321 319 318 314 313 313 310 300 286 256 231 247 239 191 48 211 215 200 197 202 214 210 224 215 228 241 250 267 266
359 359 356 351 347 343 343 339 340 337 335 333 330 329 329 328 327 323 319 315 313 311 318 315 310 302 277 249 260 246 238 231 256 251 194 201 206 222 241 224 214 219 230 243 252 262 270
2 358 358 355 351 348 346 344 338 334 332 330 329 329 327 326 326 323 321 319 311 313 303 299 296 291 262 249 252 260 242 239 241 248 243 233 224 224 234 214 234 242 238 241 240 247 255
4 4 3 355 354 348 349 347 340 339 336 333 333 330 326 325 323 320 321 316 318 312 302 294 287 273 258 295 269 256 247 239 240 236 241 240 230 242 234 233 141 208 206 229 229 232 246
11 5 357 354 351 356 358 353 350 346 342 340 339 335 332 328 324 321 318 316 321 314 309 300 268 243 274 276 262 272 251 241 239 242 230 218 213 225 221 229 225 214 231 218 236 229 245
15 10 10 8 5 3 0 356 352 348 345 343 339 336 334 330 326 323 323 327 330 326 329 353 152 234 261 297 249 314 281 258 227 212 200 207 191 209 217 202 219 219 228 236 233 228 224
15 10 8 8 7 4 1 356 351 347 341 338 336 333 333 332 331 328 330 341 338 312 296 251 256 253 281 288 284 277 319 267 196 194 197 191 197 219 212 215 235 253 234 238 234 228 245
14 10 10 10 9 3 359 355 351 347 342 338 334 333 332 330 331 328 358 43 42 326 297 281 277 256 268 272 291 265 254 202 190 200 193 176 221 220 223 220 223 229 234 238 248 259 247
14 13 11 6 3 359 355 351 350 351 348 340 331 326 326 325 328 329 334 284 225 314 260 283 253 254 253 251 236 265 197 215 209 208 192 198 224 212 207 213 215 224 229 237 244 256 245
15 13 10 5 359 355 353 351 351 350 347 345 339 328 322 321 320 317 337 212 311 315 286 269 221 247 263 211 241 262 217 209 215 212 204 224 225 200 206 217 209 230 227 240 240 234 255
17 18 14 7 1 355 352 351 350 350 347 345 341 335 329 320 303 308 312 271 279 258 296 64 131 348 329 211 321 263 235 209 229 192 189 210 200 213 207 209 204 233 222 216 228 247 274
20 17 13 9 4 359 355 351 350 348 346 343 342 337 324 317 306 316 275 307 149 197 247 313 87 338 335 342 347 308 253 221 227 244 222 222 208 203 221 203 204 207 197 164 185 235 245
14 12 9 6 2 360 355 352 349 348 344 340 339 334 322 331 314 312 270 11 171 231 326 19 338 328 329 5 352 352 324 198 213 202 218 215 222 210 202 201 192 195 197 185 211 209 241
11 8 6 3 0 360 356 353 351 348 348 341 341 341 12 345 328 271 250 176 227 299 280 349 339 325 312 20 28 328 353 337 216 242 218 204 193 210 193 199 190 191 190 215 217 225 234
8 6 4 1 358 358 358 356 352 351 349 344 345 15 7 351 2 152 206 212 278 328 359 339 324 303 335 2 341 357 357 340 24 227 276 220 227 179 183 181 183 201 212 214 238 120 220
3 0 360 358 357 356 356 353 353 354 351 348 351 72 25 17 92 160 257 279 285 323 331 316 297 342 336 345 316 18 345 342 334 351 339 284 244 207 189 192 191 185 178 189 213 212 218
357 354 353 354 354 354 352 349 353 354 353 352 1 52 6 339 215 242 206 278 286 287 306 277 279 293 304 316 332 315 216 315 3 347 330 267 277 174 175 200 185 181 189 195 199 223 209
354 352 350 351 352 354 350 347 353 356 354 356 7 16 2 40 33 343 300 305 303 291 314 281 261 267 259 299 300 292 286 166 98 41 331 303 294 244 206 198 197 198 195 194 197 183 218
354 352 351 352 351 353 351 347 353 357 357 352 349 315 3 14 7 350 326 303 273 305 337 313 303 301 283 294 307 300 316 87 129 82 22 342 237 223 172 195 206 202 204 204 212 181 204
351 349 350 350 349 351 353 350 350 357 359 354 357 349 351 16 23 336 335 310 320 325 313 337 290 303 308 301 244 265 283 310 197 270 156 330 275 259 208 203 353 207 208 205 207 216 191
349 346 347 348 347 348 353 351 347 351 360 3 8 11 356 318 335 331 321 299 315 349 342 316 329 355 339 296 308 249 252 316 294 156 126 57 280 291 273 276 286 287 219 211 214 216 221
351 347 347 347 345 347 352 349 350 348 355 8 2 342 318 291 296 326 326 292 331 331 312 308 293 321 324 289 282 292 304 309 272 8 138 138 318 324 262 233 252 272 257 225 218 215 218
352 348 348 348 346 349 351 350 346 349 350 350 342 325 298 283 316 322 290 323 308 318 296 276 309 310 298 304 306 283 279 273 263 272 276 237 324 324 218 117 308 264 239 220 225 218 221
351 349 349 351 349 348 349 349 343 340 313 306 312 307 286 287 301 298 287 300 296 305 288 296 300 269 281 314 302 274 254 252 251 237 224 222 206 262 284 208 232 221 28 211 199 207 229
352 349 349 351 348 347 347 347 347 334 300 291 294 282 255 283 291 291 285 315 303 298 287 276 300 289 299 301 283 294 198 215 231 216 208 224 216 242 263 217 315 120 24 6 206 145 15
352 351 348 347 348 348 347 346 346 334 308 291 295 288 265 291 246 298 302 290 298 318 294 260 315 314 330 287 293 300 296 308 191 143 194 193 233 260 268 230 212 36 342 328 243 169 7
352 351 349 342 344 348 347 344 343 325 310 291 295 290 272 262 276 274 284 298 292 273 275 296 334 326 320 323 262 261 284 299 272 161 171 180 185 222 219 268 277 352 328 206 187 32 341
349 350 349 343 337 346 346 344 340 330 309 299 293 290 268 267 279 277 276 268 271 258 252 318 322 47 299 320 285 327 261 337 290 35 155 166 165 192 201 222 224 360 11 60 358 329 335
346 347 347 347 336 342 344 344 337 332 305 283 285 294 285 265 268 290 297 299 279 268 265 239 264 310 286 319 312 305 308 286 295 208 328 153 275 169 229 52 347 346 310 356 340 335 338